Laconia, NH

7:12 PM EST on November 20, 2019 (GMT -0500)
Laconia Municipal

Weather History for KLCI - September, 2019

Change the Weather History Date:

Wednesday, September 25, 2019

  Actual Average Record
Temperature  
Mean Temperature 57 °F -  
Max Temperature 66 °F 64 °F 87 °F (2017)
Min Temperature 48 °F 43 °F 34 °F (1992)
Degree Days  
Heating Degree Days 8    
Growing Degree Days 7 (Base 50)    
Moisture  
Dew Point 50 °F    
Average Humidity 79    
Maximum Humidity 100    
Minimum Humidity 56    
Precipitation  
Precipitation 0.00 in - - ()
Sea Level Pressure  
Sea Level Pressure 29.84 in    
Wind  
Wind Speed 5 mph ()    
Max Wind Speed 12 mph    
Max Gust Speed -    
Visibility 10.0 miles    
Events      
Averages and records for this station are not official NWS values.
T = Trace of Precipitation, MM = Missing Value Source: Averaged Metar Reports

Daily Weather History Graph

Daily Weather History Graph

Search for Another Location

Airport or City:

Astronomy

Sep. 25, 2019 Rise Set
Actual Time 6:36 AM EDT 6:38 PM EDT
Civil Twilight 6:07 AM EDT 7:06 PM EDT
Nautical Twilight 5:34 AM EDT 7:39 PM EDT
Astronomical Twilight 4:59 AM EDT 8:13 PM EDT
Moon 2:16 AM EDT (9/25) 5:16 PM EDT (9/25)
Length of Visible Light 12h 59m
Length of Day
12h 01m
Waning Crescent, 14% of the Moon is Illuminated
Sep 25
Waning Crescent
Sep 28
New
Oct 5
First Quarter
Oct 13
Full
Oct 21
Last Quarter

Hourly Weather History & Observations

Time (EDT) Temp. Dew Point Humidity Pressure Visibility Wind Dir Wind Speed Gust Speed Precip Events Conditions
12:56 AM 54.0 °F 50.0 °F 86% 29.80 in 10.0 mi West 5.8 mph - N/A   Clear
1:56 AM 53.1 °F 48.9 °F 86% 29.80 in 10.0 mi West 8.1 mph - N/A   Clear
2:56 AM 54.0 °F 48.9 °F 83% 29.80 in 10.0 mi West 5.8 mph - N/A   Clear
3:56 AM 53.1 °F 48.9 °F 86% 29.80 in 10.0 mi WSW 6.9 mph - N/A   Clear
4:56 AM 50.0 °F 48.9 °F 96% 29.82 in 10.0 mi WSW 3.5 mph - N/A   Clear
5:56 AM 52.0 °F 50.0 °F 93% 29.84 in 10.0 mi Variable 3.5 mph - N/A   Mostly Cloudy
6:56 AM 48.9 °F 48.9 °F 100% 29.84 in 10.0 mi Calm Calm - N/A   Clear
7:56 AM 55.9 °F 51.1 °F 84% 29.85 in 10.0 mi SW 4.6 mph - N/A   Mostly Cloudy
8:56 AM 60.1 °F 51.1 °F 72% 29.86 in 10.0 mi WNW 6.9 mph - N/A   Overcast
9:56 AM 61.0 °F 52.0 °F 72% 29.86 in 10.0 mi West 9.2 mph - N/A   Overcast
10:56 AM 64.9 °F 51.1 °F 61% 29.86 in 10.0 mi WNW 8.1 mph - N/A   Scattered Clouds
11:56 AM 64.9 °F 51.1 °F 61% 29.85 in 10.0 mi Variable 6.9 mph - N/A   Mostly Cloudy
12:56 PM 64.9 °F 50.0 °F 58% 29.85 in 10.0 mi West 11.5 mph - N/A   Overcast
1:56 PM 63.0 °F 50.0 °F 63% 29.83 in 10.0 mi WNW 5.8 mph - N/A   Overcast
2:56 PM 66.0 °F 50.0 °F 56% 29.82 in 10.0 mi Variable 6.9 mph - N/A   Clear
3:56 PM 66.0 °F 50.0 °F 56% 29.83 in 10.0 mi West 9.2 mph - N/A   Partly Cloudy
4:56 PM 66.0 °F 50.0 °F 56% 29.82 in 10.0 mi NW 4.6 mph - N/A   Clear
5:56 PM 64.0 °F 50.0 °F 60% 29.83 in 10.0 mi North 3.5 mph - N/A   Clear
6:56 PM 57.9 °F 53.1 °F 84% 29.85 in 10.0 mi NNW 4.6 mph - N/A   Clear
7:56 PM 54.0 °F 52.0 °F 93% 29.86 in 10.0 mi Calm Calm - N/A   Clear
8:56 PM 52.0 °F 51.1 °F 97% 29.85 in 10.0 mi Calm Calm - N/A   Clear
9:56 PM 52.0 °F 50.0 °F 93% 29.87 in 10.0 mi Calm Calm - N/A   Clear
10:56 PM 50.0 °F 48.9 °F 96% 29.87 in 10.0 mi Calm Calm - N/A   Clear
11:56 PM 50.0 °F 48.9 °F 96% 29.86 in 10.0 mi Calm Calm - N/A   Clear